Location: College Park
(38.9810°N, 76.9370°W)
Time: 11:55:03

N. Korean satellite - Pass Details

Date: 08 March 2018
Orbit: 460 x 512 km, 97.2° (Epoch: 19 March)

Event Time Altitude Azimuth Distance (km) Brightness Sun altitude
Rises 19:03:26 0° 211° (SSW) 2,508 10.6 -11.6°
Reaches altitude 10° 19:06:27 10° 240° (WSW) 1,649 10.2 -12.2°
Maximum altitude 19:08:06 13° 268° (W) 1,494 10.4 -12.5°
Drops below altitude 10° 19:09:46 10° 296° (WNW) 1,670 10.5 -12.9°
Sets 19:12:53 0° 326° (NW) 2,571 10.8 -13.5°
